User: anonymous   Login
Location: Newark
(48.6767°N, 1.3256°E)
Time: 01:11:21
(UTC+00:00)
Language:

ISS - Orbit

View from above orbital plane
View from above orbital plane
View from above satellite
View from above satellite

Ground track
Ground track

The orbit data is extracted from the following two-line orbital elements,

1 25544U 98067A   19341.41848936  .00016717  00000-0  10270-3 0  9053
2 25544  51.6420 222.4792 0007305   7.7325 352.3937 15.50105462  2123
Epoch (UTC): 07 December 2019 10:02:37
Eccentricity: 0.0007305
inclination: 51.6420°
perigee height: 411 km
apogee height: 421 km
right ascension of ascending node: 222.4792°
argument of perigee: 7.7325°
revolutions per day: 15.50105462
mean anomaly at epoch: 352.3937°
orbit number at epoch: 212

The dashed part of the orbit path shows where the satellite is in the earth's shadow,  

DLR